SCP
0 0 0 0 0 0 0 0 0 0 0 0 0 0 0 0 0 0 0 0 0 0 0 0 0 0 0 0 0 0 0 0 0 0 0 0 0 0
0 0 0 0 0 0 0 0 0 0 0 0 0 0 0 0 0 0 0 0 0 0 0 0 0 0 0 0 0 0 0 0 0 0 0 0 0 0
0 0 0 0 0 0 0 0 0 0 0 0 0 0 0 0 0 0 0 0 0 0 0 0 0 0 0 0 0 0 0 0 0 0 0 0 0 0
0 0 0 0 0 0 0 0 0 0 0 0 0 0 0 0 0 0 0 0 0 0 0 0 0 0 0 0 0 0 0 0 0 0 0 0 0 0
0 0 0 0 0 0 0 0 0 0 0 0 0 0 0 0 0 0 0 0 0 0 0 0 0 0 0 0 0 0 0 0 0 0 0 0 0 0
0 0 0 0 0 0 0 0 0 0 0 0 0 0 0 0 0 0 0 0 0 0 0 0 0 0 0 0 0 0 0 0 0 0 0 0 0 0
0 0 0 0 0 0 0 0 0 0 0 0 0 0 0 0 0 0 0 0 0 0 0 0 0 0 0 0 0 0 0 0 0 0 0 0 0 0
0 0 0 0 0 0 0 0 0 0 0 0 0 0 0 0 0 0 0 0 0 0 0 0 0 0 0 0 0 0 0 0 0 0 0 0 0 0
0 0 0 0 0 0 0 0 0 0 0 0 0 0 0 0 0 0 0 0 0 0 0 0 0 0 0 0 0 0 0 0 0 0 0 0 0 0
0 0 0 0 0 0 0 0 0 0 0 0 0 0 0 0 0 0 0 0 0 0 0 0 0 0 0 0 0 0 0 0 0 0 0 0 0 0
0 0 0 0 0 0 0 0 0 0 0 0 0 0 0 0 0 0 0 0 0 0 0 0 0 0 0 0 0 0 0 0 0 0 0 0 0 0
0 0 0 0 0 0 0 0 0 0 0 0 0 0 0 0 0 0 0 0 0 0 0 0 0 0 0 0 0 0 0 0 0 0 0 0 0 0
0 0 0 0 0 0 0 0 0 0 0 0 0 0 0 0 0 0 0 0 0 0 0 0 0 0 0 0 0 0 0 0 0 0 0 0 0 0
0 0 0 0 0 0 0 0 0 0 0 0 0 0 0 0 0 0 0 0 0 0 0 0 0 0 0 0 0 0 0 0 0 0 0 0 0 0
0 0 0 0 0 0 0 0 0 0 0 0 0 0 0 0 0 0 0 0 0 0 0 0 0 0 0 0 0 0 0 0 0 0 0 0 0 0
0 0 0 0 0 0 0 0 0 0 0 0 0 0 0 0 0 0 0 0 0 0 0 0 0 0 0 0 0 0 0 0 0 0 0 0 0 0
0 0 0 0 0 0 0 0 0 0 0 0 0 0 0 0 0 0 0 0 0 0 0 0 0 0 0 0 0 0 0 0 0 0 0 0 0 0
0 0 0 0 0 0 0 0 0 0 0 0 0 0 0 0 0 0 0 0 0 0 0 0 0 0 0 0 0 0 0 0 0 0 0 0 0 0
0 0 0 0 0 0 0 0 0 0 0 0 0 0 0 0 0 0 0 0 0 0 0 0 0 0 0 0 0 0 0 0 0 0 0 0 0 0
0 0 0 0 0 0 0 0 0 0 0 0 0 0 0 0 0 0 0 0 0 0 0 0 0 0 0 0 0 0 0 0 0 0 0 0 0 0
0 0 0 0 0 0 0 0 0 0 0 0 0 0 0 0 0 0 0 0 0 0 0 0 0 0 0 0 0 0 0 0 0 0 0 0 0 0
0 0 0 0 0 0 0 0 0 0 0 0 0 0 0 0 0 0 0 0 0 0 0 0 0 0 0 0 0 0 0 0 0 0 0 0 0 0
-0 -0 0 0 0 0 0 0 0 0 0 0 0 0 0 0 0 0 0 0 0 0 0 0 0 0 0 0 0 0 0 0 0 0 0 0 0 0
Wind_Speed_500mb
46 49 52 54 54 56 55 54 53 35 40 52 44 40 36 38 42 45 56 57 60 61 60 59 56 53 50 48 45 43 43 42 41 40 38 36 37 37
48 51 52 54 55 57 59 61 63 65 57 60 57 52 47 43 41 41 52 57 64 69 66 67 66 63 60 57 54 53 51 49 49 48 45 43 42 41
53 55 56 55 57 59 60 63 68 70 83 90 84 78 71 63 58 53 48 50 63 71 72 73 73 72 70 66 63 62 60 57 56 55 53 50 47 46
54 57 57 57 61 62 64 66 68 70 77 90 89 90 84 76 69 69 69 71 72 64 67 75 77 78 78 74 73 70 69 68 63 63 60 58 54 52
52 55 55 56 59 60 63 70 72 72 77 81 90 89 90 82 80 79 76 76 81 80 81 77 79 83 84 83 83 79 79 80 70 72 68 66 62 59
48 53 54 58 60 59 60 63 65 72 77 85 86 88 89 86 84 86 88 85 86 84 84 85 89 92 90 90 91 89 92 90 80 78 77 73 68 67
39 43 49 53 57 58 61 63 64 68 73 80 88 86 91 94 89 84 88 84 93 88 89 91 90 93 99 102 101 102 103 101 94 86 83 80 76 73
42 41 41 43 49 55 60 62 65 68 72 77 82 87 88 88 88 85 86 84 95 93 99 104 95 100 100 101 104 105 108 107 101 94 89 86 84 80
41 44 45 44 43 46 52 58 63 68 72 74 83 86 86 83 79 80 82 86 95 92 86 99 87 97 93 97 100 106 110 109 102 100 98 95 91 86
42 42 45 47 45 44 48 52 57 64 69 72 81 84 85 80 81 79 79 84 88 87 86 102 97 110 105 106 104 97 93 95 94 98 104 101 99 92
46 44 41 44 44 44 47 53 57 61 60 65 72 75 76 74 74 74 81 84 97 100 100 94 100 100 104 107 106 101 98 96 93 92 94 100 103 96
55 53 50 45 43 44 49 53 60 63 62 65 68 69 67 68 67 74 79 90 94 76 80 84 91 88 70 79 77 87 95 100 95 90 91 94 99 100
48 51 56 57 57 54 52 57 63 64 69 73 76 75 73 72 71 71 77 84 92 104 80 72 82 80 77 84 78 71 59 62 82 94 93 95 99 102
59 59 65 60 59 58 60 61 61 62 69 74 79 83 82 81 77 72 71 76 85 92 85 91 96 90 92 94 86 75 78 77 77 72 81 92 99 102
48 51 60 63 62 62 58 55 55 58 62 67 72 77 78 78 76 75 72 70 74 79 77 82 94 93 93 101 88 75 75 76 73 75 81 84 95 102
65 64 63 60 55 59 59 56 53 53 55 61 66 68 66 66 69 69 73 72 76 81 76 80 86 86 99 99 96 90 89 82 63 67 73 85 94 100
69 59 55 44 45 49 52 55 54 54 55 56 58 60 61 61 64 61 65 68 77 82 84 84 78 82 88 93 98 103 96 99 93 84 79 83 94 99
38 38 40 43 45 47 46 48 54 57 53 56 57 59 61 60 61 61 61 63 71 77 81 79 85 78 78 88 91 102 101 100 92 87 88 90 94 91
56 55 53 52 51 50 51 50 51 49 51 67 64 60 59 59 59 59 58 63 70 74 76 77 85 81 80 92 90 85 75 98 96 92 89 97 100 90
65 59 58 57 57 55 55 56 58 55 50 50 50 67 70 65 67 63 59 62 67 72 74 76 85 86 81 91 86 86 76 77 86 85 92 90 92 91
57 59 60 59 61 61 59 56 61 63 62 62 57 53 50 70 75 74 69 67 66 70 76 80 83 84 77 73 87 89 84 70 74 71 75 84 93 91
54 56 59 61 63 63 62 62 65 70 70 70 72 70 69 57 55 66 66 66 71 73 77 79 76 79 77 80 88 86 84 74 70 72 77 75 83 98
56 54 56 58 62 65 65 67 65 74 78 79 79 76 73 76 77 79 67 71 76 74 76 78 73 78 82 84 86 84 82 77 68 76 84 78 78 79
Wind_Direction_500mb
262 262 262 263 261 259 259 259 261 266 274 268 269 262 255 252 255 252 250 249 252 251 249 250 250 252 253 255 257 259 263 268 272 275 276 281 287 290
263 264 262 262 262 261 260 259 256 258 261 268 265 264 262 258 255 253 254 252 250 250 250 250 251 252 254 256 258 259 261 264 267 270 274 276 280 284
262 264 264 265 264 261 260 258 257 256 259 266 266 266 266 263 260 258 256 255 253 252 252 252 252 253 254 255 258 259 261 262 264 268 271 273 275 279
266 265 265 265 265 264 261 260 259 259 259 266 270 272 269 269 265 262 258 256 255 254 254 254 254 254 255 256 257 259 261 261 262 265 267 270 273 273
267 267 268 267 267 265 264 263 262 261 261 262 268 271 272 270 269 266 262 260 257 256 255 254 254 254 253 254 256 258 261 261 261 263 264 266 268 272
273 270 268 266 267 268 267 266 264 264 264 265 264 266 269 269 267 267 266 263 263 261 260 258 255 256 256 256 257 258 259 262 260 261 263 263 264 268
286 281 277 271 270 267 267 266 266 265 265 266 267 267 266 268 266 270 269 271 270 266 264 260 259 257 256 256 257 257 258 259 260 261 263 264 263 265
295 291 288 282 276 271 267 266 266 265 266 268 269 269 269 270 274 273 272 270 270 265 267 263 260 258 258 258 258 259 260 260 260 261 262 262 261 261
296 293 289 288 285 281 274 269 266 266 265 267 270 269 273 272 275 274 272 272 270 270 268 270 265 263 260 259 258 258 259 261 260 259 260 260 260 260
296 295 293 290 287 288 285 277 271 267 264 267 269 272 274 275 275 274 276 275 271 269 267 269 266 265 265 261 261 260 259 260 259 256 256 256 258 259
297 293 294 292 290 287 286 283 280 275 273 268 268 271 273 272 272 274 268 268 269 268 269 267 265 269 269 268 266 264 262 261 259 255 252 250 253 256
303 300 293 292 293 288 285 287 286 284 286 284 280 275 271 269 266 263 265 263 265 267 265 268 272 269 272 276 272 268 261 258 258 256 251 249 249 249
308 306 300 298 298 290 284 281 282 288 287 285 284 284 281 277 271 263 261 260 261 261 260 259 265 268 266 270 271 268 269 266 257 252 248 246 246 247
302 302 306 306 302 297 290 286 285 286 283 282 282 282 283 284 284 282 276 269 267 267 271 270 266 263 265 269 269 271 269 264 260 259 254 249 247 246
309 307 307 308 305 299 296 294 289 289 291 288 285 282 282 284 285 284 281 276 272 269 265 261 263 267 265 266 265 267 268 264 264 260 256 252 248 244
314 319 318 310 303 308 310 299 299 297 296 293 291 290 289 286 283 282 280 279 277 273 268 263 264 262 262 265 266 262 263 259 260 254 255 252 246 244
302 304 317 322 317 315 312 317 314 306 301 300 297 294 293 290 286 282 278 277 274 275 275 273 267 263 262 260 259 263 261 263 259 258 253 250 248 248
350 340 335 335 329 323 317 315 312 312 312 310 304 298 297 296 293 288 282 275 273 271 270 270 272 269 267 264 257 258 259 260 261 256 254 253 253 250
20 14 9 4 357 346 339 329 318 309 301 304 307 308 301 298 297 293 283 279 273 273 274 271 265 263 261 262 264 263 258 255 259 255 251 247 250 251
20 15 9 6 0 351 350 347 343 332 320 305 303 304 300 297 297 296 290 284 278 274 270 272 267 263 257 265 271 276 272 264 258 257 252 247 244 246
10 9 7 5 360 358 355 350 350 345 340 335 323 307 304 296 292 292 291 287 285 281 273 270 269 278 280 277 266 265 266 260 258 256 256 245 239 236
4 3 2 0 358 356 355 354 352 351 349 343 336 327 318 305 304 288 287 292 289 287 281 279 279 273 267 264 266 269 267 265 257 252 251 247 238 228
2 357 355 356 355 353 354 355 354 352 347 343 340 334 327 318 306 296 293 287 286 282 281 279 277 274 268 267 268 269 262 258 253 245 240 240 242 234
Wind_Speed_850mb
46 49 52 54 54 56 55 54 53 35 40 52 44 40 36 38 42 45 56 57 60 61 60 59 56 53 50 48 45 43 43 42 41 40 38 36 37 37
48 51 52 54 55 57 59 61 63 65 57 60 57 52 47 43 41 41 52 57 64 69 66 67 66 63 60 57 54 53 51 49 49 48 45 43 42 41
53 55 56 55 57 59 60 63 68 70 83 90 84 78 71 63 58 53 48 50 63 71 72 73 73 72 70 66 63 62 60 57 56 55 53 50 47 46
54 57 57 57 61 62 64 66 68 70 77 90 89 90 84 76 69 69 69 71 72 64 67 75 77 78 78 74 73 70 69 68 63 63 60 58 54 52
52 55 55 56 59 60 63 70 72 72 77 81 90 89 90 82 80 79 76 76 81 80 81 77 79 83 84 83 83 79 79 80 70 72 68 66 62 59
48 53 54 58 60 59 60 63 65 72 77 85 86 88 89 86 84 86 88 85 86 84 84 85 89 92 90 90 91 89 92 90 80 78 77 73 68 67
39 43 49 53 57 58 61 63 64 68 73 80 88 86 91 94 89 84 88 84 93 88 89 91 90 93 99 102 101 102 103 101 94 86 83 80 76 73
42 41 41 43 49 55 60 62 65 68 72 77 82 87 88 88 88 85 86 84 95 93 99 104 95 100 100 101 104 105 108 107 101 94 89 86 84 80
41 44 45 44 43 46 52 58 63 68 72 74 83 86 86 83 79 80 82 86 95 92 86 99 87 97 93 97 100 106 110 109 102 100 98 95 91 86
42 42 45 47 45 44 48 52 57 64 69 72 81 84 85 80 81 79 79 84 88 87 86 102 97 110 105 106 104 97 93 95 94 98 104 101 99 92
46 44 41 44 44 44 47 53 57 61 60 65 72 75 76 74 74 74 81 84 97 100 100 94 100 100 104 107 106 101 98 96 93 92 94 100 103 96
55 53 50 45 43 44 49 53 60 63 62 65 68 69 67 68 67 74 79 90 94 76 80 84 91 88 70 79 77 87 95 100 95 90 91 94 99 100
48 51 56 57 57 54 52 57 63 64 69 73 76 75 73 72 71 71 77 84 92 104 80 72 82 80 77 84 78 71 59 62 82 94 93 95 99 102
59 59 65 60 59 58 60 61 61 62 69 74 79 83 82 81 77 72 71 76 85 92 85 91 96 90 92 94 86 75 78 77 77 72 81 92 99 102
48 51 60 63 62 62 58 55 55 58 62 67 72 77 78 78 76 75 72 70 74 79 77 82 94 93 93 101 88 75 75 76 73 75 81 84 95 102
65 64 63 60 55 59 59 56 53 53 55 61 66 68 66 66 69 69 73 72 76 81 76 80 86 86 99 99 96 90 89 82 63 67 73 85 94 100
69 59 55 44 45 49 52 55 54 54 55 56 58 60 61 61 64 61 65 68 77 82 84 84 78 82 88 93 98 103 96 99 93 84 79 83 94 99
38 38 40 43 45 47 46 48 54 57 53 56 57 59 61 60 61 61 61 63 71 77 81 79 85 78 78 88 91 102 101 100 92 87 88 90 94 91
56 55 53 52 51 50 51 50 51 49 51 67 64 60 59 59 59 59 58 63 70 74 76 77 85 81 80 92 90 85 75 98 96 92 89 97 100 90
65 59 58 57 57 55 55 56 58 55 50 50 50 67 70 65 67 63 59 62 67 72 74 76 85 86 81 91 86 86 76 77 86 85 92 90 92 91
57 59 60 59 61 61 59 56 61 63 62 62 57 53 50 70 75 74 69 67 66 70 76 80 83 84 77 73 87 89 84 70 74 71 75 84 93 91
54 56 59 61 63 63 62 62 65 70 70 70 72 70 69 57 55 66 66 66 71 73 77 79 76 79 77 80 88 86 84 74 70 72 77 75 83 98
56 54 56 58 62 65 65 67 65 74 78 79 79 76 73 76 77 79 67 71 76 74 76 78 73 78 82 84 86 84 82 77 68 76 84 78 78 79
Wind_Direction_850mb
262 262 262 263 261 259 259 259 261 266 274 268 269 262 255 252 255 252 250 249 252 251 249 250 250 252 253 255 257 259 263 268 272 275 276 281 287 290
263 264 262 262 262 261 260 259 256 258 261 268 265 264 262 258 255 253 254 252 250 250 250 250 251 252 254 256 258 259 261 264 267 270 274 276 280 284
262 264 264 265 264 261 260 258 257 256 259 266 266 266 266 263 260 258 256 255 253 252 252 252 252 253 254 255 258 259 261 262 264 268 271 273 275 279
266 265 265 265 265 264 261 260 259 259 259 266 270 272 269 269 265 262 258 256 255 254 254 254 254 254 255 256 257 259 261 261 262 265 267 270 273 273
267 267 268 267 267 265 264 263 262 261 261 262 268 271 272 270 269 266 262 260 257 256 255 254 254 254 253 254 256 258 261 261 261 263 264 266 268 272
273 270 268 266 267 268 267 266 264 264 264 265 264 266 269 269 267 267 266 263 263 261 260 258 255 256 256 256 257 258 259 262 260 261 263 263 264 268
286 281 277 271 270 267 267 266 266 265 265 266 267 267 266 268 266 270 269 271 270 266 264 260 259 257 256 256 257 257 258 259 260 261 263 264 263 265
295 291 288 282 276 271 267 266 266 265 266 268 269 269 269 270 274 273 272 270 270 265 267 263 260 258 258 258 258 259 260 260 260 261 262 262 261 261
296 293 289 288 285 281 274 269 266 266 265 267 270 269 273 272 275 274 272 272 270 270 268 270 265 263 260 259 258 258 259 261 260 259 260 260 260 260
296 295 293 290 287 288 285 277 271 267 264 267 269 272 274 275 275 274 276 275 271 269 267 269 266 265 265 261 261 260 259 260 259 256 256 256 258 259
297 293 294 292 290 287 286 283 280 275 273 268 268 271 273 272 272 274 268 268 269 268 269 267 265 269 269 268 266 264 262 261 259 255 252 250 253 256
303 300 293 292 293 288 285 287 286 284 286 284 280 275 271 269 266 263 265 263 265 267 265 268 272 269 272 276 272 268 261 258 258 256 251 249 249 249
308 306 300 298 298 290 284 281 282 288 287 285 284 284 281 277 271 263 261 260 261 261 260 259 265 268 266 270 271 268 269 266 257 252 248 246 246 247
302 302 306 306 302 297 290 286 285 286 283 282 282 282 283 284 284 282 276 269 267 267 271 270 266 263 265 269 269 271 269 264 260 259 254 249 247 246
309 307 307 308 305 299 296 294 289 289 291 288 285 282 282 284 285 284 281 276 272 269 265 261 263 267 265 266 265 267 268 264 264 260 256 252 248 244
314 319 318 310 303 308 310 299 299 297 296 293 291 290 289 286 283 282 280 279 277 273 268 263 264 262 262 265 266 262 263 259 260 254 255 252 246 244
302 304 317 322 317 315 312 317 314 306 301 300 297 294 293 290 286 282 278 277 274 275 275 273 267 263 262 260 259 263 261 263 259 258 253 250 248 248
350 340 335 335 329 323 317 315 312 312 312 310 304 298 297 296 293 288 282 275 273 271 270 270 272 269 267 264 257 258 259 260 261 256 254 253 253 250
20 14 9 4 357 346 339 329 318 309 301 304 307 308 301 298 297 293 283 279 273 273 274 271 265 263 261 262 264 263 258 255 259 255 251 247 250 251
20 15 9 6 0 351 350 347 343 332 320 305 303 304 300 297 297 296 290 284 278 274 270 272 267 263 257 265 271 276 272 264 258 257 252 247 244 246
10 9 7 5 360 358 355 350 350 345 340 335 323 307 304 296 292 292 291 287 285 281 273 270 269 278 280 277 266 265 266 260 258 256 256 245 239 236
4 3 2 0 358 356 355 354 352 351 349 343 336 327 318 305 304 288 287 292 289 287 281 279 279 273 267 264 266 269 267 265 257 252 251 247 238 228
2 357 355 356 355 353 354 355 354 352 347 343 340 334 327 318 306 296 293 287 286 282 281 279 277 274 268 267 268 269 262 258 253 245 240 240 242 234